owner,sensor,date,latitude,longitude,relative_humidity,qcFlag 
COMPS,ioos:station:USF.COMPS:SHP:1,2017-09-01T00:00:00Z,30.0600,-84.2910,89.03,1111122 
COMPS,ioos:station:USF.COMPS:SHP:1,2017-09-01T00:06:00Z,30.0600,-84.2910,89.41,1111122 
COMPS,ioos:station:USF.COMPS:SHP:1,2017-09-01T00:12:00Z,30.0600,-84.2910,89.01,1111122 
COMPS,ioos:station:USF.COMPS:SHP:1,2017-09-01T00:18:00Z,30.0600,-84.2910,88.81,1111122 
COMPS,ioos:station:USF.COMPS:SHP:1,2017-09-01T00:24:00Z,30.0600,-84.2910,89.15,1111122 
COMPS,ioos:station:USF.COMPS:SHP:1,2017-09-01T00:30:00Z,30.0600,-84.2910,88.96,1111122 
COMPS,ioos:station:USF.COMPS:SHP:1,2017-09-01T00:36:00Z,30.0600,-84.2910,88.44,1111122 
COMPS,ioos:station:USF.COMPS:SHP:1,2017-09-01T00:42:00Z,30.0600,-84.2910,86.61,1111122 
COMPS,ioos:station:USF.COMPS:SHP:1,2017-09-01T00:48:00Z,30.0600,-84.2910,85.3,1111122 
COMPS,ioos:station:USF.COMPS:SHP:1,2017-09-01T00:54:00Z,30.0600,-84.2910,83.05,1111122 
COMPS,ioos:station:USF.COMPS:SHP:1,2017-09-01T01:00:00Z,30.0600,-84.2910,80.26,1111122 
COMPS,ioos:station:USF.COMPS:SHP:1,2017-09-01T01:06:00Z,30.0600,-84.2910,81.45,1111122 
COMPS,ioos:station:USF.COMPS:SHP:1,2017-09-01T01:12:00Z,30.0600,-84.2910,81.78,1111122 
COMPS,ioos:station:USF.COMPS:SHP:1,2017-09-01T01:18:00Z,30.0600,-84.2910,84.48,1111122 
COMPS,ioos:station:USF.COMPS:SHP:1,2017-09-01T01:24:00Z,30.0600,-84.2910,84.05,1111122 
COMPS,ioos:station:USF.COMPS:SHP:1,2017-09-01T01:30:00Z,30.0600,-84.2910,84.34,1111122 
COMPS,ioos:station:USF.COMPS:SHP:1,2017-09-01T01:36:00Z,30.0600,-84.2910,84.65,1111122 
COMPS,ioos:station:USF.COMPS:SHP:1,2017-09-01T01:42:00Z,30.0600,-84.2910,84.64,1111122 
COMPS,ioos:station:USF.COMPS:SHP:1,2017-09-01T01:48:00Z,30.0600,-84.2910,84.18,1111122 
COMPS,ioos:station:USF.COMPS:SHP:1,2017-09-01T01:54:00Z,30.0600,-84.2910,85.23,1111122 
COMPS,ioos:station:USF.COMPS:SHP:1,2017-09-01T02:00:00Z,30.0600,-84.2910,84.93,1111122 
COMPS,ioos:station:USF.COMPS:SHP:1,2017-09-01T02:06:00Z,30.0600,-84.2910,85.22,1111122 
COMPS,ioos:station:USF.COMPS:SHP:1,2017-09-01T02:12:00Z,30.0600,-84.2910,86.37,1111122 
COMPS,ioos:station:USF.COMPS:SHP:1,2017-09-01T02:18:00Z,30.0600,-84.2910,88.05,1111122 
COMPS,ioos:station:USF.COMPS:SHP:1,2017-09-01T02:24:00Z,30.0600,-84.2910,90.18,1111122 
COMPS,ioos:station:USF.COMPS:SHP:1,2017-09-01T02:30:00Z,30.0600,-84.2910,91.23,1111122 
COMPS,ioos:station:USF.COMPS:SHP:1,2017-09-01T02:36:00Z,30.0600,-84.2910,91.97,1111122 
COMPS,ioos:station:USF.COMPS:SHP:1,2017-09-01T02:42:00Z,30.0600,-84.2910,92.38,1111122 
COMPS,ioos:station:USF.COMPS:SHP:1,2017-09-01T02:48:00Z,30.0600,-84.2910,92.44,1111122 
COMPS,ioos:station:USF.COMPS:SHP:1,2017-09-01T02:54:00Z,30.0600,-84.2910,92.54,1111122 
COMPS,ioos:station:USF.COMPS:SHP:1,2017-09-01T03:00:00Z,30.0600,-84.2910,92.58,1111122 
COMPS,ioos:station:USF.COMPS:SHP:1,2017-09-01T03:06:00Z,30.0600,-84.2910,92.73,1111122 
COMPS,ioos:station:USF.COMPS:SHP:1,2017-09-01T03:12:00Z,30.0600,-84.2910,92.57,1111122 
COMPS,ioos:station:USF.COMPS:SHP:1,2017-09-01T03:18:00Z,30.0600,-84.2910,92.58,1111122 
COMPS,ioos:station:USF.COMPS:SHP:1,2017-09-01T03:24:00Z,30.0600,-84.2910,92.59,1111122 
COMPS,ioos:station:USF.COMPS:SHP:1,2017-09-01T03:30:00Z,30.0600,-84.2910,92.75,1111122 
COMPS,ioos:station:USF.COMPS:SHP:1,2017-09-01T03:36:00Z,30.0600,-84.2910,92.72,1111122 
COMPS,ioos:station:USF.COMPS:SHP:1,2017-09-01T03:42:00Z,30.0600,-84.2910,92.35,1111122 
COMPS,ioos:station:USF.COMPS:SHP:1,2017-09-01T03:48:00Z,30.0600,-84.2910,92.2,1111122 
COMPS,ioos:station:USF.COMPS:SHP:1,2017-09-01T03:54:00Z,30.0600,-84.2910,91.8,1111122 
COMPS,ioos:station:USF.COMPS:SHP:1,2017-09-01T04:00:00Z,30.0600,-84.2910,91.18,1111122 
COMPS,ioos:station:USF.COMPS:SHP:1,2017-09-01T04:06:00Z,30.0600,-84.2910,90.88,1111122 
COMPS,ioos:station:USF.COMPS:SHP:1,2017-09-01T04:12:00Z,30.0600,-84.2910,90.57,1111122 
COMPS,ioos:station:USF.COMPS:SHP:1,2017-09-01T04:18:00Z,30.0600,-84.2910,90.74,1111122 
COMPS,ioos:station:USF.COMPS:SHP:1,2017-09-01T04:24:00Z,30.0600,-84.2910,91.16,1111122 
COMPS,ioos:station:USF.COMPS:SHP:1,2017-09-01T04:30:00Z,30.0600,-84.2910,91.47,1111122 
COMPS,ioos:station:USF.COMPS:SHP:1,2017-09-01T04:36:00Z,30.0600,-84.2910,91.68,1111122 
COMPS,ioos:station:USF.COMPS:SHP:1,2017-09-01T04:42:00Z,30.0600,-84.2910,91.78,1111122 
COMPS,ioos:station:USF.COMPS:SHP:1,2017-09-01T04:48:00Z,30.0600,-84.2910,91.85,1111122 
COMPS,ioos:station:USF.COMPS:SHP:1,2017-09-01T04:54:00Z,30.0600,-84.2910,92.06,1111122 
COMPS,ioos:station:USF.COMPS:SHP:1,2017-09-01T05:00:00Z,30.0600,-84.2910,92.2,1111122 
COMPS,ioos:station:USF.COMPS:SHP:1,2017-09-01T05:06:00Z,30.0600,-84.2910,92.23,1111122 
COMPS,ioos:station:USF.COMPS:SHP:1,2017-09-01T05:12:00Z,30.0600,-84.2910,92.14,1111122 
COMPS,ioos:station:USF.COMPS:SHP:1,2017-09-01T05:18:00Z,30.0600,-84.2910,92.19,1111122 
COMPS,ioos:station:USF.COMPS:SHP:1,2017-09-01T05:24:00Z,30.0600,-84.2910,91.93,1111122 
COMPS,ioos:station:USF.COMPS:SHP:1,2017-09-01T05:30:00Z,30.0600,-84.2910,91.57,1111122 
COMPS,ioos:station:USF.COMPS:SHP:1,2017-09-01T05:36:00Z,30.0600,-84.2910,91.06,1111122 
COMPS,ioos:station:USF.COMPS:SHP:1,2017-09-01T05:42:00Z,30.0600,-84.2910,90.51,1111122 
COMPS,ioos:station:USF.COMPS:SHP:1,2017-09-01T05:48:00Z,30.0600,-84.2910,89.98,1111122 
COMPS,ioos:station:USF.COMPS:SHP:1,2017-09-01T05:54:00Z,30.0600,-84.2910,89.76,1111122 
COMPS,ioos:station:USF.COMPS:SHP:1,2017-09-01T06:00:00Z,30.0600,-84.2910,89.56,1111122 
COMPS,ioos:station:USF.COMPS:SHP:1,2017-09-01T06:06:00Z,30.0600,-84.2910,89.77,1111122 
COMPS,ioos:station:USF.COMPS:SHP:1,2017-09-01T06:12:00Z,30.0600,-84.2910,90.37,1111122 
COMPS,ioos:station:USF.COMPS:SHP:1,2017-09-01T06:18:00Z,30.0600,-84.2910,91.01,1111122 
COMPS,ioos:station:USF.COMPS:SHP:1,2017-09-01T06:24:00Z,30.0600,-84.2910,91.41,1111122 
COMPS,ioos:station:USF.COMPS:SHP:1,2017-09-01T06:30:00Z,30.0600,-84.2910,91.62,1111122 
COMPS,ioos:station:USF.COMPS:SHP:1,2017-09-01T06:36:00Z,30.0600,-84.2910,91.95,1111122 
COMPS,ioos:station:USF.COMPS:SHP:1,2017-09-01T06:42:00Z,30.0600,-84.2910,92.34,1111122 
COMPS,ioos:station:USF.COMPS:SHP:1,2017-09-01T06:48:00Z,30.0600,-84.2910,92.76,1111122 
COMPS,ioos:station:USF.COMPS:SHP:1,2017-09-01T06:54:00Z,30.0600,-84.2910,92.93,1111122 
COMPS,ioos:station:USF.COMPS:SHP:1,2017-09-01T07:00:00Z,30.0600,-84.2910,92.57,1111122 
COMPS,ioos:station:USF.COMPS:SHP:1,2017-09-01T07:06:00Z,30.0600,-84.2910,91.26,1111122 
COMPS,ioos:station:USF.COMPS:SHP:1,2017-09-01T07:12:00Z,30.0600,-84.2910,90.32,1111122 
COMPS,ioos:station:USF.COMPS:SHP:1,2017-09-01T07:18:00Z,30.0600,-84.2910,89.73,1111122 
COMPS,ioos:station:USF.COMPS:SHP:1,2017-09-01T07:24:00Z,30.0600,-84.2910,88.82,1111122 
COMPS,ioos:station:USF.COMPS:SHP:1,2017-09-01T07:30:00Z,30.0600,-84.2910,86.24,1111122 
COMPS,ioos:station:USF.COMPS:SHP:1,2017-09-01T07:36:00Z,30.0600,-84.2910,84.24,1111122 
COMPS,ioos:station:USF.COMPS:SHP:1,2017-09-01T07:42:00Z,30.0600,-84.2910,83.98,1111122 
COMPS,ioos:station:USF.COMPS:SHP:1,2017-09-01T07:48:00Z,30.0600,-84.2910,83.54,1111122 
COMPS,ioos:station:USF.COMPS:SHP:1,2017-09-01T07:54:00Z,30.0600,-84.2910,83.42,1111122 
COMPS,ioos:station:USF.COMPS:SHP:1,2017-09-01T08:00:00Z,30.0600,-84.2910,83.86,1111122 
COMPS,ioos:station:USF.COMPS:SHP:1,2017-09-01T08:06:00Z,30.0600,-84.2910,84.43,1111122 
COMPS,ioos:station:USF.COMPS:SHP:1,2017-09-01T08:12:00Z,30.0600,-84.2910,83.94,1111122 
COMPS,ioos:station:USF.COMPS:SHP:1,2017-09-01T08:18:00Z,30.0600,-84.2910,83.7,1111122 
COMPS,ioos:station:USF.COMPS:SHP:1,2017-09-01T08:24:00Z,30.0600,-84.2910,83.51,1111122 
COMPS,ioos:station:USF.COMPS:SHP:1,2017-09-01T08:30:00Z,30.0600,-84.2910,83.56,1111122 
COMPS,ioos:station:USF.COMPS:SHP:1,2017-09-01T08:36:00Z,30.0600,-84.2910,82.18,1111122 
COMPS,ioos:station:USF.COMPS:SHP:1,2017-09-01T08:42:00Z,30.0600,-84.2910,82.24,1111122 
COMPS,ioos:station:USF.COMPS:SHP:1,2017-09-01T08:48:00Z,30.0600,-84.2910,82.7,1111122 
COMPS,ioos:station:USF.COMPS:SHP:1,2017-09-01T08:54:00Z,30.0600,-84.2910,82.48,1111122 
COMPS,ioos:station:USF.COMPS:SHP:1,2017-09-01T09:00:00Z,30.0600,-84.2910,83.28,1111122 
COMPS,ioos:station:USF.COMPS:SHP:1,2017-09-01T09:06:00Z,30.0600,-84.2910,84.24,1111122 
COMPS,ioos:station:USF.COMPS:SHP:1,2017-09-01T09:12:00Z,30.0600,-84.2910,85.2,1111122 
COMPS,ioos:station:USF.COMPS:SHP:1,2017-09-01T09:18:00Z,30.0600,-84.2910,86.01,1111122 
COMPS,ioos:station:USF.COMPS:SHP:1,2017-09-01T09:24:00Z,30.0600,-84.2910,87.09,1111122 
COMPS,ioos:station:USF.COMPS:SHP:1,2017-09-01T09:30:00Z,30.0600,-84.2910,87.69,1111122 
COMPS,ioos:station:USF.COMPS:SHP:1,2017-09-01T09:36:00Z,30.0600,-84.2910,85.87,1111122 
COMPS,ioos:station:USF.COMPS:SHP:1,2017-09-01T09:42:00Z,30.0600,-84.2910,81.8,1111122 
COMPS,ioos:station:USF.COMPS:SHP:1,2017-09-01T09:48:00Z,30.0600,-84.2910,81.13,1111122 
COMPS,ioos:station:USF.COMPS:SHP:1,2017-09-01T09:54:00Z,30.0600,-84.2910,81.98,1111122 
COMPS,ioos:station:USF.COMPS:SHP:1,2017-09-01T10:00:00Z,30.0600,-84.2910,83.33,1111122 
COMPS,ioos:station:USF.COMPS:SHP:1,2017-09-01T10:06:00Z,30.0600,-84.2910,84.31,1111122 
COMPS,ioos:station:USF.COMPS:SHP:1,2017-09-01T10:12:00Z,30.0600,-84.2910,85.0,1111122 
COMPS,ioos:station:USF.COMPS:SHP:1,2017-09-01T10:18:00Z,30.0600,-84.2910,85.47,1111122 
COMPS,ioos:station:USF.COMPS:SHP:1,2017-09-01T10:24:00Z,30.0600,-84.2910,85.83,1111122 
COMPS,ioos:station:USF.COMPS:SHP:1,2017-09-01T10:30:00Z,30.0600,-84.2910,86.26,1111122 
COMPS,ioos:station:USF.COMPS:SHP:1,2017-09-01T10:36:00Z,30.0600,-84.2910,85.66,1111122 
COMPS,ioos:station:USF.COMPS:SHP:1,2017-09-01T10:42:00Z,30.0600,-84.2910,84.78,1111122 
COMPS,ioos:station:USF.COMPS:SHP:1,2017-09-01T10:48:00Z,30.0600,-84.2910,85.14,1111122 
COMPS,ioos:station:USF.COMPS:SHP:1,2017-09-01T10:54:00Z,30.0600,-84.2910,85.55,1111122 
COMPS,ioos:station:USF.COMPS:SHP:1,2017-09-01T11:00:00Z,30.0600,-84.2910,86.27,1111122 
COMPS,ioos:station:USF.COMPS:SHP:1,2017-09-01T11:06:00Z,30.0600,-84.2910,86.62,1111122 
COMPS,ioos:station:USF.COMPS:SHP:1,2017-09-01T11:12:00Z,30.0600,-84.2910,86.46,1111122 
COMPS,ioos:station:USF.COMPS:SHP:1,2017-09-01T11:18:00Z,30.0600,-84.2910,86.23,1111122 
COMPS,ioos:station:USF.COMPS:SHP:1,2017-09-01T11:24:00Z,30.0600,-84.2910,85.25,1111122 
COMPS,ioos:station:USF.COMPS:SHP:1,2017-09-01T11:30:00Z,30.0600,-84.2910,85.58,1111122 
COMPS,ioos:station:USF.COMPS:SHP:1,2017-09-01T11:36:00Z,30.0600,-84.2910,85.57,1111122 
COMPS,ioos:station:USF.COMPS:SHP:1,2017-09-01T11:42:00Z,30.0600,-84.2910,85.72,1111122 
COMPS,ioos:station:USF.COMPS:SHP:1,2017-09-01T11:48:00Z,30.0600,-84.2910,86.45,1111122 
COMPS,ioos:station:USF.COMPS:SHP:1,2017-09-01T11:54:00Z,30.0600,-84.2910,87.29,1111122 
COMPS,ioos:station:USF.COMPS:SHP:1,2017-09-01T12:00:00Z,30.0600,-84.2910,88.01,1111122 
COMPS,ioos:station:USF.COMPS:SHP:1,2017-09-01T12:06:00Z,30.0600,-84.2910,88.37,1111122 
COMPS,ioos:station:USF.COMPS:SHP:1,2017-09-01T12:12:00Z,30.0600,-84.2910,88.48,1111122 
COMPS,ioos:station:USF.COMPS:SHP:1,2017-09-01T12:18:00Z,30.0600,-84.2910,88.46,1111122 
COMPS,ioos:station:USF.COMPS:SHP:1,2017-09-01T12:24:00Z,30.0600,-84.2910,88.38,1111122 
COMPS,ioos:station:USF.COMPS:SHP:1,2017-09-01T12:30:00Z,30.0600,-84.2910,88.18,1111122 
COMPS,ioos:station:USF.COMPS:SHP:1,2017-09-01T12:36:00Z,30.0600,-84.2910,87.98,1111122 
COMPS,ioos:station:USF.COMPS:SHP:1,2017-09-01T12:42:00Z,30.0600,-84.2910,87.7,1111122 
COMPS,ioos:station:USF.COMPS:SHP:1,2017-09-01T12:48:00Z,30.0600,-84.2910,87.82,1111122 
COMPS,ioos:station:USF.COMPS:SHP:1,2017-09-01T12:54:00Z,30.0600,-84.2910,87.73,1111122 
COMPS,ioos:station:USF.COMPS:SHP:1,2017-09-01T13:00:00Z,30.0600,-84.2910,87.76,1111122 
COMPS,ioos:station:USF.COMPS:SHP:1,2017-09-01T13:06:00Z,30.0600,-84.2910,87.55,1111122 
COMPS,ioos:station:USF.COMPS:SHP:1,2017-09-01T13:12:00Z,30.0600,-84.2910,86.5,1111122 
COMPS,ioos:station:USF.COMPS:SHP:1,2017-09-01T13:18:00Z,30.0600,-84.2910,86.1,1111122 
COMPS,ioos:station:USF.COMPS:SHP:1,2017-09-01T13:24:00Z,30.0600,-84.2910,85.69,1111122 
COMPS,ioos:station:USF.COMPS:SHP:1,2017-09-01T13:30:00Z,30.0600,-84.2910,85.23,1111122 
COMPS,ioos:station:USF.COMPS:SHP:1,2017-09-01T13:36:00Z,30.0600,-84.2910,83.81,1111122 
COMPS,ioos:station:USF.COMPS:SHP:1,2017-09-01T13:42:00Z,30.0600,-84.2910,81.68,1111122 
COMPS,ioos:station:USF.COMPS:SHP:1,2017-09-01T13:48:00Z,30.0600,-84.2910,80.67,1111122 
COMPS,ioos:station:USF.COMPS:SHP:1,2017-09-01T13:54:00Z,30.0600,-84.2910,81.23,1111122 
COMPS,ioos:station:USF.COMPS:SHP:1,2017-09-01T14:00:00Z,30.0600,-84.2910,81.27,1111122 
COMPS,ioos:station:USF.COMPS:SHP:1,2017-09-01T14:06:00Z,30.0600,-84.2910,81.66,1111122 
COMPS,ioos:station:USF.COMPS:SHP:1,2017-09-01T14:12:00Z,30.0600,-84.2910,81.63,1111122 
COMPS,ioos:station:USF.COMPS:SHP:1,2017-09-01T14:18:00Z,30.0600,-84.2910,81.28,1111122 
COMPS,ioos:station:USF.COMPS:SHP:1,2017-09-01T14:24:00Z,30.0600,-84.2910,81.24,1111122 
COMPS,ioos:station:USF.COMPS:SHP:1,2017-09-01T14:30:00Z,30.0600,-84.2910,80.79,1111122 
COMPS,ioos:station:USF.COMPS:SHP:1,2017-09-01T14:36:00Z,30.0600,-84.2910,81.08,1111122 
COMPS,ioos:station:USF.COMPS:SHP:1,2017-09-01T14:42:00Z,30.0600,-84.2910,80.0,1111122 
COMPS,ioos:station:USF.COMPS:SHP:1,2017-09-01T14:48:00Z,30.0600,-84.2910,76.52,1111122 
COMPS,ioos:station:USF.COMPS:SHP:1,2017-09-01T14:54:00Z,30.0600,-84.2910,76.81,1111122 
COMPS,ioos:station:USF.COMPS:SHP:1,2017-09-01T15:00:00Z,30.0600,-84.2910,78.53,1111122 
COMPS,ioos:station:USF.COMPS:SHP:1,2017-09-01T15:06:00Z,30.0600,-84.2910,79.21,1111122 
COMPS,ioos:station:USF.COMPS:SHP:1,2017-09-01T15:12:00Z,30.0600,-84.2910,77.92,1111122 
COMPS,ioos:station:USF.COMPS:SHP:1,2017-09-01T15:18:00Z,30.0600,-84.2910,77.24,1111122 
COMPS,ioos:station:USF.COMPS:SHP:1,2017-09-01T15:24:00Z,30.0600,-84.2910,76.74,1111122 
COMPS,ioos:station:USF.COMPS:SHP:1,2017-09-01T15:30:00Z,30.0600,-84.2910,74.48,1111122 
COMPS,ioos:station:USF.COMPS:SHP:1,2017-09-01T15:36:00Z,30.0600,-84.2910,73.78,1111122 
COMPS,ioos:station:USF.COMPS:SHP:1,2017-09-01T15:42:00Z,30.0600,-84.2910,72.67,1111122 
COMPS,ioos:station:USF.COMPS:SHP:1,2017-09-01T15:48:00Z,30.0600,-84.2910,73.69,1111122 
COMPS,ioos:station:USF.COMPS:SHP:1,2017-09-01T15:54:00Z,30.0600,-84.2910,72.65,1111122 
COMPS,ioos:station:USF.COMPS:SHP:1,2017-09-01T16:00:00Z,30.0600,-84.2910,73.83,1111122 
COMPS,ioos:station:USF.COMPS:SHP:1,2017-09-01T16:06:00Z,30.0600,-84.2910,71.78,1111122 
COMPS,ioos:station:USF.COMPS:SHP:1,2017-09-01T16:12:00Z,30.0600,-84.2910,69.98,1111122 
COMPS,ioos:station:USF.COMPS:SHP:1,2017-09-01T16:18:00Z,30.0600,-84.2910,69.48,1111122 
COMPS,ioos:station:USF.COMPS:SHP:1,2017-09-01T16:24:00Z,30.0600,-84.2910,70.58,1111122 
COMPS,ioos:station:USF.COMPS:SHP:1,2017-09-01T16:30:00Z,30.0600,-84.2910,71.53,1111122 
COMPS,ioos:station:USF.COMPS:SHP:1,2017-09-01T16:36:00Z,30.0600,-84.2910,75.89,1111122 
COMPS,ioos:station:USF.COMPS:SHP:1,2017-09-01T16:42:00Z,30.0600,-84.2910,77.91,1111122 
COMPS,ioos:station:USF.COMPS:SHP:1,2017-09-01T16:48:00Z,30.0600,-84.2910,77.87,1111122 
COMPS,ioos:station:USF.COMPS:SHP:1,2017-09-01T16:54:00Z,30.0600,-84.2910,77.92,1111122 
COMPS,ioos:station:USF.COMPS:SHP:1,2017-09-01T17:00:00Z,30.0600,-84.2910,76.52,1111122 
COMPS,ioos:station:USF.COMPS:SHP:1,2017-09-01T17:06:00Z,30.0600,-84.2910,73.92,1111122 
COMPS,ioos:station:USF.COMPS:SHP:1,2017-09-01T17:12:00Z,30.0600,-84.2910,71.87,1111122 
COMPS,ioos:station:USF.COMPS:SHP:1,2017-09-01T17:18:00Z,30.0600,-84.2910,71.36,1111122 
COMPS,ioos:station:USF.COMPS:SHP:1,2017-09-01T17:24:00Z,30.0600,-84.2910,71.67,1111122 
COMPS,ioos:station:USF.COMPS:SHP:1,2017-09-01T17:30:00Z,30.0600,-84.2910,72.49,1111122 
COMPS,ioos:station:USF.COMPS:SHP:1,2017-09-01T17:36:00Z,30.0600,-84.2910,69.93,1111122 
COMPS,ioos:station:USF.COMPS:SHP:1,2017-09-01T17:42:00Z,30.0600,-84.2910,70.18,1111122 
COMPS,ioos:station:USF.COMPS:SHP:1,2017-09-01T17:48:00Z,30.0600,-84.2910,70.58,1111122 
COMPS,ioos:station:USF.COMPS:SHP:1,2017-09-01T17:54:00Z,30.0600,-84.2910,70.57,1111122 
COMPS,ioos:station:USF.COMPS:SHP:1,2017-09-01T18:00:00Z,30.0600,-84.2910,68.45,1111122 
COMPS,ioos:station:USF.COMPS:SHP:1,2017-09-01T18:06:00Z,30.0600,-84.2910,63.2,1111122 
COMPS,ioos:station:USF.COMPS:SHP:1,2017-09-01T18:12:00Z,30.0600,-84.2910,65.86,1111122 
COMPS,ioos:station:USF.COMPS:SHP:1,2017-09-01T18:18:00Z,30.0600,-84.2910,66.7,1111122 
COMPS,ioos:station:USF.COMPS:SHP:1,2017-09-01T18:24:00Z,30.0600,-84.2910,68.27,1111122 
COMPS,ioos:station:USF.COMPS:SHP:1,2017-09-01T18:30:00Z,30.0600,-84.2910,67.95,1111122 
COMPS,ioos:station:USF.COMPS:SHP:1,2017-09-01T18:36:00Z,30.0600,-84.2910,67.55,1111122 
COMPS,ioos:station:USF.COMPS:SHP:1,2017-09-01T18:42:00Z,30.0600,-84.2910,66.69,1111122 
COMPS,ioos:station:USF.COMPS:SHP:1,2017-09-01T18:48:00Z,30.0600,-84.2910,65.51,1111122 
COMPS,ioos:station:USF.COMPS:SHP:1,2017-09-01T18:54:00Z,30.0600,-84.2910,67.34,1111122 
COMPS,ioos:station:USF.COMPS:SHP:1,2017-09-01T19:00:00Z,30.0600,-84.2910,67.25,1111122 
COMPS,ioos:station:USF.COMPS:SHP:1,2017-09-01T19:06:00Z,30.0600,-84.2910,65.35,1111122 
COMPS,ioos:station:USF.COMPS:SHP:1,2017-09-01T19:12:00Z,30.0600,-84.2910,66.25,1111122 
COMPS,ioos:station:USF.COMPS:SHP:1,2017-09-01T19:18:00Z,30.0600,-84.2910,66.21,1111122 
COMPS,ioos:station:USF.COMPS:SHP:1,2017-09-01T19:24:00Z,30.0600,-84.2910,67.34,1111122 
COMPS,ioos:station:USF.COMPS:SHP:1,2017-09-01T19:30:00Z,30.0600,-84.2910,69.34,1111122 
COMPS,ioos:station:USF.COMPS:SHP:1,2017-09-01T19:36:00Z,30.0600,-84.2910,70.25,1111122 
COMPS,ioos:station:USF.COMPS:SHP:1,2017-09-01T19:42:00Z,30.0600,-84.2910,72.34,1111122 
COMPS,ioos:station:USF.COMPS:SHP:1,2017-09-01T19:48:00Z,30.0600,-84.2910,71.11,1111122 
COMPS,ioos:station:USF.COMPS:SHP:1,2017-09-01T19:54:00Z,30.0600,-84.2910,64.14,1111122 
COMPS,ioos:station:USF.COMPS:SHP:1,2017-09-01T20:00:00Z,30.0600,-84.2910,64.37,1111122 
COMPS,ioos:station:USF.COMPS:SHP:1,2017-09-01T20:06:00Z,30.0600,-84.2910,65.07,1111122 
COMPS,ioos:station:USF.COMPS:SHP:1,2017-09-01T20:12:00Z,30.0600,-84.2910,64.71,1111122 
COMPS,ioos:station:USF.COMPS:SHP:1,2017-09-01T20:18:00Z,30.0600,-84.2910,65.59,1111122 
COMPS,ioos:station:USF.COMPS:SHP:1,2017-09-01T20:24:00Z,30.0600,-84.2910,64.99,1111122 
COMPS,ioos:station:USF.COMPS:SHP:1,2017-09-01T20:30:00Z,30.0600,-84.2910,64.34,1111122 
COMPS,ioos:station:USF.COMPS:SHP:1,2017-09-01T20:36:00Z,30.0600,-84.2910,66.91,1111122 
COMPS,ioos:station:USF.COMPS:SHP:1,2017-09-01T20:42:00Z,30.0600,-84.2910,67.02,1111122 
COMPS,ioos:station:USF.COMPS:SHP:1,2017-09-01T20:48:00Z,30.0600,-84.2910,70.22,1111122 
COMPS,ioos:station:USF.COMPS:SHP:1,2017-09-01T20:54:00Z,30.0600,-84.2910,70.98,1111122 
COMPS,ioos:station:USF.COMPS:SHP:1,2017-09-01T21:00:00Z,30.0600,-84.2910,70.07,1111122 
COMPS,ioos:station:USF.COMPS:SHP:1,2017-09-01T21:06:00Z,30.0600,-84.2910,72.03,1111122 
COMPS,ioos:station:USF.COMPS:SHP:1,2017-09-01T21:12:00Z,30.0600,-84.2910,70.89,1111122 
COMPS,ioos:station:USF.COMPS:SHP:1,2017-09-01T21:18:00Z,30.0600,-84.2910,70.47,1111122 
COMPS,ioos:station:USF.COMPS:SHP:1,2017-09-01T21:24:00Z,30.0600,-84.2910,69.68,1111122 
COMPS,ioos:station:USF.COMPS:SHP:1,2017-09-01T21:30:00Z,30.0600,-84.2910,67.75,1111122 
COMPS,ioos:station:USF.COMPS:SHP:1,2017-09-01T21:36:00Z,30.0600,-84.2910,65.92,1111122 
COMPS,ioos:station:USF.COMPS:SHP:1,2017-09-01T21:42:00Z,30.0600,-84.2910,66.48,1111122 
COMPS,ioos:station:USF.COMPS:SHP:1,2017-09-01T21:48:00Z,30.0600,-84.2910,64.41,1111122 
COMPS,ioos:station:USF.COMPS:SHP:1,2017-09-01T21:54:00Z,30.0600,-84.2910,61.95,1111122 
COMPS,ioos:station:USF.COMPS:SHP:1,2017-09-01T22:00:00Z,30.0600,-84.2910,64.1,1111122 
COMPS,ioos:station:USF.COMPS:SHP:1,2017-09-01T22:06:00Z,30.0600,-84.2910,64.39,1111122 
COMPS,ioos:station:USF.COMPS:SHP:1,2017-09-01T22:12:00Z,30.0600,-84.2910,63.84,1111122 
COMPS,ioos:station:USF.COMPS:SHP:1,2017-09-01T22:18:00Z,30.0600,-84.2910,64.38,1111122 
COMPS,ioos:station:USF.COMPS:SHP:1,2017-09-01T22:24:00Z,30.0600,-84.2910,64.47,1111122 
COMPS,ioos:station:USF.COMPS:SHP:1,2017-09-01T22:30:00Z,30.0600,-84.2910,64.13,1111122 
COMPS,ioos:station:USF.COMPS:SHP:1,2017-09-01T22:36:00Z,30.0600,-84.2910,64.36,1111122 
COMPS,ioos:station:USF.COMPS:SHP:1,2017-09-01T22:42:00Z,30.0600,-84.2910,65.27,1111122 
COMPS,ioos:station:USF.COMPS:SHP:1,2017-09-01T22:48:00Z,30.0600,-84.2910,66.05,1111122 
COMPS,ioos:station:USF.COMPS:SHP:1,2017-09-01T22:54:00Z,30.0600,-84.2910,65.49,1111122 
COMPS,ioos:station:USF.COMPS:SHP:1,2017-09-01T23:00:00Z,30.0600,-84.2910,65.42,1111122 
COMPS,ioos:station:USF.COMPS:SHP:1,2017-09-01T23:06:00Z,30.0600,-84.2910,66.55,1111122 
COMPS,ioos:station:USF.COMPS:SHP:1,2017-09-01T23:12:00Z,30.0600,-84.2910,66.97,1111122 
COMPS,ioos:station:USF.COMPS:SHP:1,2017-09-01T23:18:00Z,30.0600,-84.2910,67.76,1111122 
COMPS,ioos:station:USF.COMPS:SHP:1,2017-09-01T23:24:00Z,30.0600,-84.2910,68.14,1111122 
COMPS,ioos:station:USF.COMPS:SHP:1,2017-09-01T23:30:00Z,30.0600,-84.2910,68.38,1111122 
COMPS,ioos:station:USF.COMPS:SHP:1,2017-09-01T23:36:00Z,30.0600,-84.2910,68.46,1111122 
COMPS,ioos:station:USF.COMPS:SHP:1,2017-09-01T23:42:00Z,30.0600,-84.2910,70.02,1111122 
COMPS,ioos:station:USF.COMPS:SHP:1,2017-09-01T23:48:00Z,30.0600,-84.2910,68.65,1111122 
COMPS,ioos:station:USF.COMPS:SHP:1,2017-09-01T23:54:00Z,30.0600,-84.2910,69.31,1111122 
COMPS,ioos:station:USF.COMPS:SHP:1,2017-09-02T00:00:00Z,30.0600,-84.2910,69.46,1111122 
COMPS,ioos:station:USF.COMPS:SHP:1,2017-09-02T00:06:00Z,30.0600,-84.2910,68.96,1111122 
COMPS,ioos:station:USF.COMPS:SHP:1,2017-09-02T00:12:00Z,30.0600,-84.2910,69.15,1111122 
COMPS,ioos:station:USF.COMPS:SHP:1,2017-09-02T00:18:00Z,30.0600,-84.2910,71.33,1111122 
COMPS,ioos:station:USF.COMPS:SHP:1,2017-09-02T00:24:00Z,30.0600,-84.2910,73.01,1111122 
COMPS,ioos:station:USF.COMPS:SHP:1,2017-09-02T00:30:00Z,30.0600,-84.2910,72.54,1111122 
COMPS,ioos:station:USF.COMPS:SHP:1,2017-09-02T00:36:00Z,30.0600,-84.2910,71.9,1111122 
COMPS,ioos:station:USF.COMPS:SHP:1,2017-09-02T00:42:00Z,30.0600,-84.2910,70.67,1111122 
COMPS,ioos:station:USF.COMPS:SHP:1,2017-09-02T00:48:00Z,30.0600,-84.2910,72.87,1111122 
COMPS,ioos:station:USF.COMPS:SHP:1,2017-09-02T00:54:00Z,30.0600,-84.2910,74.11,1111122 
COMPS,ioos:station:USF.COMPS:SHP:1,2017-09-02T01:00:00Z,30.0600,-84.2910,73.26,1111122 
COMPS,ioos:station:USF.COMPS:SHP:1,2017-09-02T01:06:00Z,30.0600,-84.2910,74.48,1111122 
COMPS,ioos:station:USF.COMPS:SHP:1,2017-09-02T01:12:00Z,30.0600,-84.2910,74.59,1111122 
COMPS,ioos:station:USF.COMPS:SHP:1,2017-09-02T01:18:00Z,30.0600,-84.2910,74.93,1111122 
COMPS,ioos:station:USF.COMPS:SHP:1,2017-09-02T01:24:00Z,30.0600,-84.2910,75.1,1111122 
COMPS,ioos:station:USF.COMPS:SHP:1,2017-09-02T01:30:00Z,30.0600,-84.2910,75.45,1111122 
COMPS,ioos:station:USF.COMPS:SHP:1,2017-09-02T01:36:00Z,30.0600,-84.2910,75.91,1111122 
COMPS,ioos:station:USF.COMPS:SHP:1,2017-09-02T01:42:00Z,30.0600,-84.2910,76.38,1111122 
COMPS,ioos:station:USF.COMPS:SHP:1,2017-09-02T01:48:00Z,30.0600,-84.2910,76.32,1111122 
COMPS,ioos:station:USF.COMPS:SHP:1,2017-09-02T01:54:00Z,30.0600,-84.2910,75.67,1111122 
COMPS,ioos:station:USF.COMPS:SHP:1,2017-09-02T02:00:00Z,30.0600,-84.2910,75.97,1111122 
COMPS,ioos:station:USF.COMPS:SHP:1,2017-09-02T02:06:00Z,30.0600,-84.2910,74.83,1111122 
COMPS,ioos:station:USF.COMPS:SHP:1,2017-09-02T02:12:00Z,30.0600,-84.2910,76.14,1111122 
COMPS,ioos:station:USF.COMPS:SHP:1,2017-09-02T02:18:00Z,30.0600,-84.2910,75.78,1111122 
COMPS,ioos:station:USF.COMPS:SHP:1,2017-09-02T02:24:00Z,30.0600,-84.2910,74.34,1111122 
COMPS,ioos:station:USF.COMPS:SHP:1,2017-09-02T02:30:00Z,30.0600,-84.2910,74.34,1111122 
COMPS,ioos:station:USF.COMPS:SHP:1,2017-09-02T02:36:00Z,30.0600,-84.2910,70.25,1111122 
COMPS,ioos:station:USF.COMPS:SHP:1,2017-09-02T02:42:00Z,30.0600,-84.2910,70.98,1111122 
COMPS,ioos:station:USF.COMPS:SHP:1,2017-09-02T02:48:00Z,30.0600,-84.2910,68.08,1111122 
COMPS,ioos:station:USF.COMPS:SHP:1,2017-09-02T02:54:00Z,30.0600,-84.2910,77.71,1111122 
COMPS,ioos:station:USF.COMPS:SHP:1,2017-09-02T03:00:00Z,30.0600,-84.2910,83.51,1111122 
COMPS,ioos:station:USF.COMPS:SHP:1,2017-09-02T03:06:00Z,30.0600,-84.2910,82.28,1111122 